Weather reports worldwide

Advertisment
Cap Bear, France (7749): temperature & dewpoint: 18.06.2018 11:00:00 - 24.06.2018 11:00:00 (CEST)Cap Bear, France (7749): wind speed & gusts: 18.06.2018 11:00:00 - 24.06.2018 11:00:00 (CEST)Cap Bear, France (7749): wind direction: 18.06.2018 11:00:00 - 24.06.2018 11:00:00 (CEST)Cap Bear, France (7749): reduced air pressure: 18.06.2018 11:00:00 - 24.06.2018 11:00:00 (CEST)Cap Bear, France (7749): visibility: 18.06.2018 11:00:00 - 24.06.2018 11:00:00 (CEST)Cap Bear, France (7749): precipitation: 18.06.2018 11:00:00 - 24.06.2018 11:00:00 (CEST)
Date & Time tt [°C] td [°C] ff [km/h] ff [kn] fx [km/h] fx [kn] dd ppp [hPa] vv [km] rr [mm]
24.06.2018 11:00:00 - - - - - - - - - -
24.06.2018 10:00:00 23,4 11,1 10 5 12 7 NNW 1017,9 - 0,0
24.06.2018 09:00:00 22,5 14,1 6 4 11 6 NW 1017,8 - 0,0
24.06.2018 08:00:00 20,9 12,1 5 3 12 6 NW 1017,7 - 0,0
24.06.2018 07:00:00 18,7 12,4 9 5 12 6 NNW 1017,6 - 0,0
24.06.2018 06:00:00 19,6 12,8 3 2 6 3 S 1017,4 - 0,0
24.06.2018 05:00:00 19,4 14,0 2 1 14 8 NE 1017,2 - 0,0
24.06.2018 04:00:00 21,3 13,0 10 5 14 8 S 1017,5 - 0,0
24.06.2018 03:00:00 21,4 11,1 4 2 6 3 S 1018,0 - 0,0
24.06.2018 02:00:00 21,6 11,6 5 3 6 4 SSE 1018,3 - 0,0
24.06.2018 01:00:00 21,6 11,3 2 1 8 4 NNW 1018,4 - 0,0
24.06.2018 00:00:00 21,4 12,5 6 3 7 4 NNW 1018,5 - 0,0
23.06.2018 23:00:00 21,6 12,2 2 1 5 3 SE 1018,5 - 0,0
23.06.2018 22:00:00 22,3 12,3 3 2 9 5 SSW 1018,1 - 0,0
23.06.2018 21:00:00 22,5 12,7 7 4 9 5 SSE 1018,0 - 0,0
23.06.2018 20:00:00 24,2 10,8 3 1 7 4 S 1017,6 20 0,0
23.06.2018 19:00:00 24,3 10,2 3 1 10 6 S 1017,7 - 0,0
23.06.2018 18:00:00 25,3 9,2 4 2 11 6 ENE 1018,1 - 0,0
23.06.2018 17:00:00 25,2 9,9 3 2 11 6 E 1018,3 - 0,0
23.06.2018 16:00:00 24,6 8,5 6 4 16 9 ESE 1018,7 - 0,0
23.06.2018 15:00:00 23,7 8,9 10 6 18 10 S 1019,0 - 0,0
23.06.2018 14:00:00 23,2 8,1 7 4 19 10 ENE 1019,6 - 0,0
23.06.2018 13:00:00 23,3 8,2 8 4 13 7 E 1019,9 - 0,0
23.06.2018 12:00:00 23,5 13,1 8 4 14 7 N 1019,7 - 0,0
23.06.2018 11:00:00 23,4 11,8 5 3 13 7 ENE 1019,6 30 0,0
23.06.2018 10:00:00 21,9 12,7 11 6 21 12 NNW 1019,7 - 0,0
23.06.2018 09:00:00 21,4 13,6 19 10 29 16 NNW 1019,2 - 0,0
23.06.2018 08:00:00 20,8 13,7 21 12 29 16 NNW 1019,0 20 0,0
23.06.2018 07:00:00 19,6 14,8 21 11 28 15 N 1018,7 - 0,0
23.06.2018 06:00:00 19,7 14,3 22 12 32 17 NNW 1018,3 - 0,0
23.06.2018 05:00:00 19,7 14,9 25 14 32 17 N 1018,0 20 0,0
23.06.2018 04:00:00 20,2 15,2 24 13 50 27 N 1018,3 - 0,0
23.06.2018 03:00:00 23,5 10,5 39 21 56 31 NW 1017,6 - 0,0
23.06.2018 02:00:00 23,8 10,8 44 24 61 33 NW 1017,8 - 0,0
23.06.2018 01:00:00 24,0 11,3 42 23 79 43 NW 1017,7 - 0,0
23.06.2018 00:00:00 24,2 12,2 62 34 73 39 NW 1016,6 - 0,0
22.06.2018 23:00:00 24,5 12,8 52 28 60 32 NNW 1017,1 - 0,0
22.06.2018 22:00:00 24,8 12,7 53 29 79 43 NNW 1016,3 - 0,0
22.06.2018 21:00:00 24,9 13,1 64 34 77 42 NNW 1015,1 - 0,0
22.06.2018 20:00:00 24,6 16,1 50 27 73 39 NNW 1015,4 - 0,0
22.06.2018 19:00:00 25,4 16,0 48 26 60 33 NNW 1015,0 - 0,0
22.06.2018 18:00:00 26,1 16,4 50 27 69 37 NNW 1015,0 - 0,0
22.06.2018 17:00:00 26,8 16,1 60 32 67 36 N 1014,7 - 0,0
22.06.2018 16:00:00 26,7 16,9 45 24 58 31 N 1015,4 - 0,0
22.06.2018 15:00:00 26,8 17,3 33 18 65 35 NNW 1016,2 - 0,0
22.06.2018 14:00:00 25,8 16,6 49 27 69 37 NNW 1016,4 - 0,0
22.06.2018 13:00:00 26,4 17,7 41 22 66 36 N 1016,6 - 0,0
22.06.2018 12:00:00 26,5 17,0 45 24 61 33 NNW 1017,0 - 0,0
22.06.2018 11:00:00 25,7 17,6 42 23 66 36 NNW 1016,5 20 0,0
22.06.2018 10:00:00 25,5 17,9 54 29 66 36 NW 1016,6 - 0,0
22.06.2018 09:00:00 25,1 18,3 57 31 71 38 NW 1016,0 - 0,0
22.06.2018 08:00:00 23,8 18,9 45 24 72 39 NNW 1015,8 20 0,0
22.06.2018 07:00:00 24,9 18,3 51 27 72 39 NW 1015,3 - 0,0
22.06.2018 06:00:00 24,7 18,6 36 19 58 31 NW 1015,7 - 0,0
22.06.2018 05:00:00 25,0 18,7 36 19 62 33 WNW 1016,0 - 0,0
22.06.2018 04:00:00 25,7 19,1 37 20 68 37 NW 1015,7 - 0,0
22.06.2018 03:00:00 25,9 19,5 37 20 59 32 WNW 1015,8 - 0,0
22.06.2018 02:00:00 26,6 19,7 39 21 62 33 NW 1016,1 - 0,0
22.06.2018 01:00:00 26,8 19,7 39 21 59 32 NW 1016,0 - 0,0
22.06.2018 00:00:00 27,1 19,4 39 21 53 29 NW 1015,9 - 0,0
21.06.2018 23:00:00 27,6 18,9 31 17 54 29 NW 1015,9 - 0,0
21.06.2018 22:00:00 28,4 18,2 40 22 48 26 NW 1015,4 - 0,0
21.06.2018 21:00:00 29,0 16,5 21 11 28 15 NNW 1015,3 - 0,0
21.06.2018 20:00:00 29,0 15,5 0 0 13 7 N 1015,2 - 0,0
21.06.2018 19:00:00 28,6 15,8 11 6 16 9 S 1014,9 - 0,0
21.06.2018 18:00:00 28,4 15,0 9 5 17 9 S 1015,5 - 0,0
21.06.2018 17:00:00 25,2 17,4 16 8 23 12 S 1016,0 - 0,0
21.06.2018 16:00:00 24,3 17,8 16 9 23 13 S 1016,5 - 0,0
21.06.2018 15:00:00 23,6 19,3 13 7 19 10 S 1016,9 - 0,0
21.06.2018 14:00:00 23,7 19,0 13 7 21 12 S 1017,3 20 0,0
21.06.2018 13:00:00 24,1 19,0 9 5 17 9 SSE 1017,8 - 0,0
21.06.2018 12:00:00 24,4 17,6 12 7 15 8 NNW 1017,9 - 0,0
21.06.2018 11:00:00 23,6 18,3 10 6 14 8 N 1017,9 20 0,0
21.06.2018 10:00:00 23,2 18,1 12 7 25 13 N 1018,3 - 0,0
21.06.2018 09:00:00 23,4 17,4 19 11 30 16 NW 1017,8 - 0,0
21.06.2018 08:00:00 22,4 17,3 18 10 26 14 NNW 1017,7 - 0,0
21.06.2018 07:00:00 20,8 17,6 18 10 29 16 NW 1017,5 - 0,0
21.06.2018 06:00:00 19,7 17,1 22 12 26 14 NW 1017,4 - 0,0
21.06.2018 05:00:00 20,4 17,6 18 10 26 14 NW 1017,5 20 0,0
21.06.2018 04:00:00 21,0 17,6 16 9 27 15 NW 1017,8 - 0,0
21.06.2018 03:00:00 21,4 16,8 24 13 29 16 NW 1018,1 - 0,0
21.06.2018 02:00:00 21,4 16,4 16 9 22 12 NW 1018,3 - 0,0
21.06.2018 01:00:00 22,0 17,1 5 3 23 12 W 1018,3 - 0,0
21.06.2018 00:00:00 21,6 18,0 21 11 24 13 NW 1018,6 - 0,0
20.06.2018 23:00:00 23,2 17,4 5 3 26 14 WNW 1018,5 - 0,0
20.06.2018 22:00:00 21,0 18,4 22 12 37 20 SSE 1017,9 - 0,0
20.06.2018 21:00:00 22,0 18,2 31 17 40 21 SSE 1017,6 - 0,0
20.06.2018 20:00:00 22,4 18,8 19 10 38 20 S 1017,5 - 0,0
20.06.2018 19:00:00 23,1 18,4 35 19 40 22 SSE 1017,3 - 0,0
20.06.2018 18:00:00 23,1 18,0 37 20 42 23 SSE 1017,9 - 0,0
20.06.2018 17:00:00 23,5 18,6 35 19 41 22 SSE 1017,9 - 0,0
20.06.2018 16:00:00 23,4 18,5 31 17 40 22 SE 1018,3 - 0,0
20.06.2018 15:00:00 24,0 18,4 36 19 38 21 SSE 1018,5 - 0,0
20.06.2018 14:00:00 24,3 18,0 36 19 40 22 SSE 1019,0 - 0,0
20.06.2018 13:00:00 25,3 17,5 32 17 34 18 SSE 1019,3 - 0,0
20.06.2018 12:00:00 24,1 16,9 26 14 29 16 SE 1019,5 - 0,0
20.06.2018 11:00:00 24,6 14,7 18 10 19 11 SSE 1019,4 20 0,0
20.06.2018 10:00:00 24,8 16,0 11 6 14 8 SE 1019,5 - 0,0
20.06.2018 09:00:00 23,8 15,3 6 3 8 5 NE 1019,6 - 0,0
20.06.2018 08:00:00 23,3 16,3 3 2 5 3 E 1019,2 22 0,0
20.06.2018 07:00:00 22,5 15,6 3 2 6 3 NW 1018,9 - 0,0
20.06.2018 06:00:00 21,7 15,3 4 2 6 4 S 1018,8 - 0,0
20.06.2018 05:00:00 23,0 15,1 3 2 14 8 W 1018,8 20 0,0
20.06.2018 04:00:00 23,5 15,0 11 6 16 9 NW 1019,0 - 0,0
20.06.2018 03:00:00 23,1 15,2 14 7 19 10 NW 1019,2 - 0,0
20.06.2018 02:00:00 23,7 14,4 2 1 5 3 NW 1019,4 - 0,0
20.06.2018 01:00:00 24,3 14,4 4 2 7 4 ENE 1019,5 - 0,0
20.06.2018 00:00:00 24,7 14,2 3 2 4 2 NNE 1019,4 - 0,0
19.06.2018 23:00:00 25,5 13,7 2 1 3 2 E 1019,4 - 0,0
19.06.2018 22:00:00 25,9 13,7 0 0 8 4 N 1018,9 - 0,0
19.06.2018 21:00:00 26,6 14,7 6 3 17 9 N 1018,7 - 0,0
19.06.2018 20:00:00 26,9 14,6 11 6 17 9 NNE 1018,7 25 0,0
19.06.2018 19:00:00 26,9 14,3 11 6 16 9 N 1018,9 - 0,0
19.06.2018 18:00:00 26,6 14,7 13 7 22 12 NNE 1019,3 - 0,0
19.06.2018 17:00:00 26,5 14,6 20 11 31 17 NNE 1019,5 - 0,0
19.06.2018 16:00:00 24,9 14,7 25 14 33 18 NNE 1019,7 - 0,0
19.06.2018 15:00:00 24,3 16,3 31 17 39 21 NNE 1019,9 - 0,0
19.06.2018 14:00:00 25,1 16,5 37 20 42 23 NNE 1020,4 - 0,0
19.06.2018 13:00:00 24,9 15,8 32 18 51 28 N 1020,4 - 0,0
19.06.2018 12:00:00 25,5 16,1 47 25 56 30 N 1020,1 - 0,0
19.06.2018 11:00:00 24,0 15,2 53 28 72 39 NNW 1020,4 25 0,0
19.06.2018 10:00:00 23,6 15,1 61 33 76 41 NW 1020,4 - 0,0
19.06.2018 09:00:00 22,9 15,0 62 34 85 46 NW 1020,4 - 0,0
19.06.2018 08:00:00 21,7 15,1 55 30 91 49 NW 1020,2 20 0,0
19.06.2018 07:00:00 20,9 14,8 57 31 86 47 NW 1020,1 - 0,0
19.06.2018 06:00:00 20,5 14,6 46 25 71 38 NW 1020,3 - 0,0
19.06.2018 05:00:00 20,1 14,5 54 29 76 41 NW 1020,4 18 0,0
19.06.2018 04:00:00 20,4 14,5 57 31 91 49 NW 1020,5 - 0,0
19.06.2018 03:00:00 20,8 14,2 58 31 77 41 NW 1020,3 - 0,0
19.06.2018 02:00:00 21,1 14,0 42 23 73 40 NW 1020,7 - 0,0
19.06.2018 01:00:00 21,4 13,6 44 24 73 40 NW 1020,9 - 0,0
19.06.2018 00:00:00 21,6 13,5 50 27 74 40 NW 1020,9 - 0,0
18.06.2018 23:00:00 21,8 13,7 54 29 82 44 NW 1020,7 - 0,0
18.06.2018 22:00:00 22,0 14,1 69 38 88 47 NW 1019,7 - 0,0
18.06.2018 21:00:00 22,6 14,4 74 40 88 48 NNW 1018,9 - 0,0
18.06.2018 20:00:00 23,3 14,3 73 40 84 45 NNW 1018,6 - 0,0
18.06.2018 19:00:00 23,5 14,8 65 35 76 41 NNW 1018,8 - 0,0
18.06.2018 18:00:00 23,5 15,3 55 30 83 45 NNW 1019,5 - 0,0
18.06.2018 17:00:00 24,0 14,7 72 39 85 46 NNW 1018,6 - 0,0
18.06.2018 16:00:00 23,7 14,9 68 37 84 46 NNW 1018,9 - 0,0
18.06.2018 15:00:00 24,0 14,4 72 39 82 45 NNW 1018,7 - 0,0
18.06.2018 14:00:00 23,8 13,9 63 34 83 45 NNW 1019,6 - 0,0
18.06.2018 13:00:00 23,1 14,4 61 33 87 47 NNW 1020,0 - 0,0
18.06.2018 12:00:00 22,2 13,8 74 40 91 49 NNW 1019,3 - 0,0
18.06.2018 11:00:00 21,5 12,1 74 40 84 46 NW 1019,7 25 0,0

tt = temperature
td = dewpoint
ff = wind speed
fx = gusts
dd = wind direction
ppp = reduced air pressure
vv = visibility
rr = precipitation

Next stations